Location: Unspecified
(40.9447°N, 78.9903°W)
Time: 08:14:29
(UTC-04:00)

Cosmos 2058 - Pass Details

Date: 28 July 2021
Orbit: 560 x 584 km, 82.5° (Epoch: 16 September)

Event Time Altitude Azimuth Distance (km) Brightness Sun altitude
Rises 21:59:39 0° 212° (SSW) 2,776 6.3 -14.0°
Reaches altitude 10° 22:02:03 10° 224° (SW) 1,886 5.6 -14.4°
Maximum altitude 22:05:40 28° 285° (WNW) 1,100 5.0 -14.9°
Drops below altitude 10° 22:09:20 10° 345° (NNW) 1,908 6.5 -15.4°
Sets 22:11:47 0° 357° (N) 2,815 7.2 -15.7°
